When you browse on this site, cookies collect data to enhance your experience and personalize the content and advertising you see.
Visit our Privacy Policy to learn more. By continuing to use the site, you agree to this use of cookies and data.
  • In Czech Republic
  • List of Countries
  • For 7 days
  • Water Temperature
  • Satellite Maps
  • Weather Map
  • Weather Widgets
  • user-avatar
    Login

    Hourly Weather Duala

    Today, 19 December, Wednesday

    Time Temperature Precipitation Wind Pressure Humidity
    00:00 +28°C° 0 mm 1 mps 759 mmHg 77%
    01:00 +28°C° 0 mm 1 mps 759 mmHg 78%
    02:00 +27°C° 0 mm 1 mps 759 mmHg 79%
    03:00 +27°C° 0 mm 1 mps 759 mmHg 80%
    04:00 +27°C° 0 mm 1 mps 759 mmHg 81%
    05:00 +27°C° 0 mm 1 mps 759 mmHg 80%
    06:00 +27°C° 0 mm 1 mps 759 mmHg 80%
    07:00 +27°C° 0 mm 1 mps 759 mmHg 78%
    08:00 +30°C° 0 mm 1 mps 759 mmHg 67%
    09:00 +33°C° 0 mm 1 mps 759 mmHg 56%
    10:00 +33°C° 0 mm 0 mps 760 mmHg 45%
    11:00 +36°C° 0 mm 1 mps 759 mmHg 41%
    12:00 +39°C° 0 mm 1 mps 758 mmHg 36%
    13:00 +40°C° 0 mm 2 mps 758 mmHg 32%
    14:00 +39°C° 0 mm 2 mps 757 mmHg 34%
    15:00 +38°C° 0 mm 3 mps 757 mmHg 36%
    16:00 +37°C° 0 mm 3 mps 756 mmHg 38%
    17:00 +35°C° 0 mm 3 mps 756 mmHg 46%
    18:00 +33°C° 0 mm 3 mps 757 mmHg 54%
    19:00 +31°C° 0 mm 3 mps 757 mmHg 63%
    20:00 +30°C° 0 mm 3 mps 758 mmHg 66%
    21:00 +30°C° 0 mm 2 mps 758 mmHg 70%
    22:00 +29°C° 0 mm 2 mps 759 mmHg 74%
    23:00 +29°C° 0 mm 2 mps 759 mmHg 75%

    Tomorrow, 20 December, Thursday

    Time Temperature Precipitation Wind Pressure Humidity
    00:00 +28°C° 0 mm 2 mps 759 mmHg 77%
    01:00 +28°C° 0 mm 2 mps 759 mmHg 78%
    02:00 +28°C° 0 mm 1 mps 758 mmHg 79%
    03:00 +27°C° 0 mm 1 mps 758 mmHg 80%
    04:00 +27°C° 0 mm 1 mps 758 mmHg 80%
    05:00 +27°C° 0 mm 1 mps 758 mmHg 80%
    06:00 +27°C° 0 mm 1 mps 758 mmHg 80%
    07:00 +27°C° 0 mm 1 mps 759 mmHg 80%
    08:00 +30°C° 0 mm 1 mps 759 mmHg 68%
    09:00 +32°C° 0 mm 1 mps 759 mmHg 57%
    10:00 +35°C° 0 mm 1 mps 759 mmHg 45%
    11:00 +36°C° 0 mm 1 mps 759 mmHg 41%
    12:00 +37°C° 0 mm 1 mps 758 mmHg 37%
    13:00 +39°C° 0 mm 2 mps 758 mmHg 33%
    14:00 +38°C° 0 mm 2 mps 757 mmHg 35%
    15:00 +38°C° 0 mm 3 mps 756 mmHg 37%
    16:00 +37°C° 0 mm 3 mps 756 mmHg 39%
    17:00 +35°C° 0 mm 3 mps 756 mmHg 47%
    18:00 +33°C° 0 mm 3 mps 757 mmHg 55%
    19:00 +30°C° 0 mm 3 mps 757 mmHg 63%
    20:00 +30°C° 0 mm 3 mps 758 mmHg 67%
    21:00 +29°C° 0 mm 3 mps 758 mmHg 71%
    22:00 +29°C° 0 mm 2 mps 759 mmHg 75%
    23:00 +29°C° 0 mm 2 mps 759 mmHg 77%

    Day after tomorrow, 21 December, Friday

    Time Temperature Precipitation Wind Pressure Humidity
    00:00 +28°C° 0 mm 2 mps 759 mmHg 79%
    01:00 +28°C° 0 mm 2 mps 758 mmHg 80%
    02:00 +28°C° 0 mm 2 mps 758 mmHg 81%
    03:00 +27°C° 0 mm 1 mps 758 mmHg 82%
    04:00 +27°C° 0 mm 1 mps 758 mmHg 83%
    05:00 +27°C° 0 mm 1 mps 758 mmHg 82%
    06:00 +27°C° 0 mm 1 mps 758 mmHg 82%
    07:00 +27°C° 0 mm 1 mps 759 mmHg 81%
    08:00 +30°C° 0 mm 1 mps 759 mmHg 69%
    09:00 +32°C° 0 mm 1 mps 759 mmHg 57%
    10:00 +35°C° 0 mm 1 mps 759 mmHg 45%
    11:00 +36°C° 0 mm 1 mps 759 mmHg 41%
    12:00 +37°C° 0 mm 1 mps 758 mmHg 36%
    13:00 +40°C° 0 mm 2 mps 757 mmHg 32%
    14:00 +39°C° 0 mm 2 mps 756 mmHg 35%
    15:00 +38°C° 0 mm 3 mps 756 mmHg 37%
    16:00 +37°C° 0 mm 3 mps 755 mmHg 40%
    17:00 +35°C° 0 mm 3 mps 756 mmHg 48%
    18:00 +33°C° 0 mm 3 mps 756 mmHg 56%
    19:00 +30°C° 0 mm 3 mps 757 mmHg 65%
    20:00 +30°C° 0 mm 3 mps 757 mmHg 68%
    21:00 +29°C° 0 mm 3 mps 758 mmHg 72%
    22:00 +29°C° 0 mm 2 mps 759 mmHg 76%
    23:00 +28°C° 0 mm 2 mps 758 mmHg 78%

    22 December, Saturday

    Time Temperature Precipitation Wind Pressure Humidity
    00:00 +28°C° 0 mm 2 mps 758 mmHg 79%
    01:00 +28°C° 0 mm 2 mps 758 mmHg 81%
    02:00 +28°C° 0 mm 2 mps 758 mmHg 82%
    03:00 +27°C° 0 mm 2 mps 757 mmHg 83%
    04:00 +27°C° 0 mm 1 mps 757 mmHg 84%
    05:00 +27°C° 0.1 mm 1 mps 758 mmHg 83%
    06:00 +27°C° 0.1 mm 1 mps 758 mmHg 82%
    07:00 +27°C° 0.1 mm 1 mps 758 mmHg 81%
    08:00 +29°C° 0 mm 1 mps 759 mmHg 70%
    09:00 +32°C° 0 mm 1 mps 759 mmHg 59%
    10:00 +34°C° 0 mm 1 mps 759 mmHg 48%
    11:00 +35°C° 0 mm 1 mps 758 mmHg 44%
    12:00 +37°C° 0 mm 2 mps 757 mmHg 41%
    13:00 +38°C° 0 mm 2 mps 757 mmHg 37%
    14:00 +37°C° 0 mm 3 mps 756 mmHg 40%
    15:00 +37°C° 0 mm 3 mps 755 mmHg 43%
    16:00 +36°C° 0 mm 4 mps 755 mmHg 46%
    17:00 +34°C° 0 mm 3 mps 755 mmHg 53%
    18:00 +31°C° 0 mm 3 mps 756 mmHg 61%
    19:00 +30°C° 0 mm 3 mps 756 mmHg 68%
    20:00 +29°C° 0 mm 3 mps 757 mmHg 71%
    21:00 +29°C° 0 mm 2 mps 758 mmHg 74%
    22:00 +28°C° 0 mm 2 mps 758 mmHg 77%
    23:00 +28°C° 0.1 mm 2 mps 758 mmHg 79%

    23 December, Sunday

    Time Temperature Precipitation Wind Pressure Humidity
    00:00 +28°C° 0.1 mm 2 mps 757 mmHg 80%
    01:00 +27°C° 0.1 mm 2 mps 757 mmHg 82%
    02:00 +27°C° 0 mm 1 mps 757 mmHg 82%
    03:00 +27°C° 0 mm 1 mps 757 mmHg 83%
    04:00 +27°C° 0 mm 1 mps 756 mmHg 84%
    05:00 +27°C° 0 mm 1 mps 757 mmHg 83%
    06:00 +27°C° 0 mm 1 mps 757 mmHg 82%
    07:00 +27°C° 0 mm 1 mps 758 mmHg 81%
    08:00 +29°C° 0.1 mm 1 mps 758 mmHg 70%
    09:00 +32°C° 0.1 mm 1 mps 758 mmHg 59%
    10:00 +34°C° 0.1 mm 1 mps 759 mmHg 47%
    11:00 +36°C° 0 mm 1 mps 758 mmHg 43%
    12:00 +37°C° 0 mm 1 mps 757 mmHg 39%
    13:00 +39°C° 0 mm 2 mps 756 mmHg 36%
    14:00 +38°C° 0 mm 2 mps 755 mmHg 38%
    15:00 +37°C° 0 mm 3 mps 755 mmHg 41%
    16:00 +36°C° 0 mm 3 mps 754 mmHg 43%
    17:00 +34°C° 0 mm 3 mps 755 mmHg 50%
    18:00 +33°C° 0 mm 3 mps 755 mmHg 57%
    19:00 +30°C° 0 mm 3 mps 756 mmHg 65%
    20:00 +29°C° 0 mm 2 mps 756 mmHg 68%
    21:00 +29°C° 0 mm 2 mps 757 mmHg 71%
    22:00 +28°C° 0 mm 2 mps 758 mmHg 74%
    23:00 +28°C° 0 mm 2 mps 757 mmHg 75%

    24 December, Monday

    Time Temperature Precipitation Wind Pressure Humidity
    00:00 +28°C° 0 mm 2 mps 757 mmHg 77%
    01:00 +28°C° 0 mm 2 mps 757 mmHg 78%
    02:00 +27°C° 0 mm 1 mps 757 mmHg 79%
    03:00 +27°C° 0 mm 1 mps 756 mmHg 80%
    04:00 +26°C° 0 mm 1 mps 756 mmHg 81%
    05:00 +26°C° 0 mm 1 mps 757 mmHg 81%
    06:00 +26°C° 0 mm 1 mps 757 mmHg 81%
    07:00 +26°C° 0 mm 1 mps 758 mmHg 80%
    08:00 +29°C° 0 mm 1 mps 758 mmHg 69%
    09:00 +32°C° 0 mm 1 mps 758 mmHg 57%
    10:00 +34°C° 0 mm 1 mps 758 mmHg 45%
    11:00 +36°C° 0 mm 1 mps 758 mmHg 40%
    12:00 +37°C° 0 mm 1 mps 757 mmHg 36%
    13:00 +39°C° 0 mm 2 mps 756 mmHg 32%
    14:00 +38°C° 0 mm 2 mps 755 mmHg 34%
    15:00 +37°C° 0 mm 3 mps 755 mmHg 36%
    16:00 +37°C° 0 mm 3 mps 754 mmHg 39%
    17:00 +35°C° 0 mm 3 mps 755 mmHg 46%
    18:00 +33°C° 0 mm 3 mps 756 mmHg 53%
    19:00 +30°C° 0 mm 3 mps 756 mmHg 60%
    20:00 +30°C° 0 mm 3 mps 757 mmHg 64%
    21:00 +29°C° 0 mm 2 mps 757 mmHg 68%
    22:00 +29°C° 0 mm 2 mps 758 mmHg 72%
    23:00 +28°C° 0 mm 2 mps 757 mmHg 74%
    Show more